EW8163 Weather Reports


Display with metric or nautical units.
time (UTC)temp
F
wind
direction
speed
MPH
gust
MPH
rain 1hr
in
rain 24hr
in
rain mn
in
humidity
%
barometer
mb
20260904103032 39 225 0.0 0.0 0.00 0.00 0.00 95 1017.1
20260904102031 39 225 0.0 0.0 0.00 0.00 0.00 95 1017.0
20260904100048 39 225 0.0 0.0 0.00 0.00 0.00 95 1016.8
20260904095930 39 225 0.0 0.0 0.00 0.00 0.00 95 1016.9
20260904094931 39 225 0.0 0.0 0.00 0.00 0.00 95 1017.0
20260904093933 39 225 0.0 0.0 0.00 0.00 0.00 95 1016.9
20260904093835 39 225 0.0 0.0 0.00 0.00 0.00 95 1016.9
20260904092832 39 225 0.0 0.0 0.00 0.00 0.00 94 1016.8
20260904091833 39 225 0.0 0.0 0.00 0.00 0.00 94 1017.0
20260904090031 40 225 0.0 0.0 0.00 0.00 0.00 93 1017.1
20260904085033 40 225 0.0 0.0 0.00 0.00 0.00 93 1017.1
20260904084031 40 225 0.0 0.0 0.00 0.00 0.00 93 1017.1
20260904083130 40 225 0.0 0.0 0.00 0.00 0.00 93 1017.1
20260904081134 40 225 0.0 0.0 0.00 0.00 0.00 92 1017.2
20260904081032 40 225 0.0 0.0 0.00 0.00 0.00 92 1017.2
20260904075031 41 225 0.0 0.0 0.00 0.00 0.00 90 1017.4
20260904074033 41 225 0.0 0.0 0.00 0.00 0.00 91 1017.3
20260904073130 41 225 0.0 0.0 0.00 0.00 0.00 90 1017.2
20260904072132 41 225 0.0 0.0 0.00 0.00 0.00 90 1017.4
20260904071131 41 225 0.0 0.0 0.00 0.00 0.00 90 1017.4
20260904070131 42 225 0.0 0.0 0.00 0.00 0.00 89 1017.3
20260904065218 42 225 0.0 0.0 0.00 0.00 0.00 89 1017.4
20260904064217 42 225 0.0 0.0 0.00 0.00 0.00 87 1017.6
20260904063215 43 225 0.0 0.0 0.00 0.00 0.00 87 1017.6
20260904062217 43 225 0.0 0.0 0.00 0.00 0.00 87 1017.6
20260904061218 43 225 0.0 0.0 0.00 0.00 0.00 85 1017.6
20260904060217 44 225 0.0 0.0 0.00 0.00 0.00 86 1017.6
20260904055315 44 225 0.0 0.0 0.00 0.00 0.00 85 1017.6
20260904055218 44 225 0.0 0.0 0.00 0.00 0.00 85 1017.4
20260904054216 44 225 0.0 0.0 0.00 0.00 0.00 84 1017.6
20260904053217 45 225 0.0 0.0 0.00 0.00 0.00 84 1017.6
20260904052218 45 225 0.0 0.0 0.00 0.00 0.00 83 1017.7
20260904051215 45 225 0.0 0.0 0.00 0.00 0.00 82 1017.6
20260904045216 46 225 0.0 0.0 0.00 0.00 0.00 81 1017.9
20260904044218 46 225 0.0 0.0 0.00 0.00 0.00 80 1018.0
20260904043218 47 225 0.0 0.0 0.00 0.00 0.00 79 1017.9
20260904043117 47 225 0.0 0.0 0.00 0.00 0.00 79 1017.6
20260904042214 48 225 0.0 0.0 0.00 0.00 0.00 77 1017.8
20260904041231 48 225 0.0 0.0 0.00 0.00 0.00 76 1017.8
20260904040315 49 225 0.0 0.0 0.00 0.00 0.00 76 1017.8
20260904035316 49 225 0.0 0.0 0.00 0.00 0.00 75 1017.7
20260904034316 50 225 0.0 0.0 0.00 0.00 0.00 74 1017.7
20260904034218 50 225 0.0 0.0 0.00 0.00 0.00 75 1017.6
20260904033315 51 225 0.0 0.0 0.00 0.00 0.00 75 1017.6
20260904032319 51 225 0.0 0.0 0.00 0.00 0.00 73 1017.6
20260904025417 54 225 0.0 0.0 0.00 0.00 0.00 70 1017.4
20260904023416 55 225 0.0 0.0 0.00 0.00 0.00 68 1017.4
20260904023315 55 225 0.0 0.0 0.00 0.00 0.00 67 1017.4
20260904021316 58 225 0.0 0.0 0.00 0.00 0.00 62 1017.6
20260904020415 59 225 0.0 0.0 0.00 0.00 0.00 60 1017.6
20260904015416 60 225 0.0 0.0 0.00 0.00 0.00 58 1017.6
20260904012417 62 180 0.0 1.0 0.00 0.00 0.00 52 1017.8
20260904012319 62 180 0.0 0.0 0.00 0.00 0.00 52 1017.6
20260904011415 63 180 0.0 0.0 0.00 0.00 0.00 50 1017.6
20260904010415 65 7 0.0 2.0 0.00 0.00 0.00 48 1017.6
20260904004517 67 177 3.0 5.0 0.00 0.00 0.00 45 1017.6
20260904003515 68 252 1.0 4.0 0.00 0.00 0.00 44 1017.6
20260904002516 67 185 2.0 4.0 0.00 0.00 0.00 43 1017.4
20260904002414 67 235 2.0 5.0 0.00 0.00 0.00 43 1017.4
20260904001416 68 192 3.0 5.0 0.00 0.00 0.00 44 1017.6
20260904000418 68 225 0.0 2.0 0.00 0.00 0.00 43 1017.5
20260903235415 68 279 2.0 5.0 0.00 0.00 0.00 42 1017.5
20260903234316 69 143 0.0 3.0 0.00 0.00 0.00 42 1017.6
20260903233317 69 225 2.0 5.0 0.00 0.00 0.00 43 1017.6
20260903233215 69 191 3.0 5.0 0.00 0.00 0.00 43 1017.6
20260903231315 69 226 4.0 7.0 0.00 0.00 0.00 42 1017.6
20260903230316 69 239 1.0 5.0 0.00 0.00 0.00 42 1017.8
20260903225217 69 166 1.0 6.0 0.00 0.00 0.00 43 1017.9
20260903224216 69 256 2.0 3.0 0.00 0.00 0.00 42 1017.9
20260903223315 69 173 2.0 6.0 0.00 0.00 0.00 44 1017.9
20260903222316 69 160 3.0 6.0 0.00 0.00 0.00 42 1018.1
20260903221414 69 179 4.0 7.0 0.00 0.00 0.00 42 1018.2
20260903214516 69 187 2.0 5.0 0.00 0.00 0.00 42 1018.2
20260903213415 70 247 0.0 2.0 0.00 0.00 0.00 42 1018.2
20260903212416 69 220 2.0 5.0 0.00 0.00 0.00 41 1018.2
20260903211514 69 244 5.0 9.0 0.00 0.00 0.00 40 1018.2
20260903210515 69 162 5.0 9.0 0.00 0.00 0.00 40 1018.2
20260903205515 68 177 1.0 5.0 0.00 0.00 0.00 40 1018.5
20260903205416 68 242 2.0 5.0 0.00 0.00 0.00 40 1018.3
20260903204416 69 268 1.0 3.0 0.00 0.00 0.00 38 1018.4
20260903203515 70 211 3.0 6.0 0.00 0.00 0.00 38 1018.4
20260903202514 70 207 3.0 5.0 0.00 0.00 0.00 39 1018.5
20260903201417 70 202 3.0 6.0 0.00 0.00 0.00 37 1018.5
20260903200415 69 196 3.0 5.0 0.00 0.00 0.00 38 1018.4
20260903195417 69 243 1.0 5.0 0.00 0.00 0.00 37 1018.4
20260903194516 69 239 4.0 6.0 0.00 0.00 0.00 37 1018.5
20260903193516 69 188 1.0 5.0 0.00 0.00 0.00 39 1018.6
20260903192516 69 209 3.0 7.0 0.00 0.00 0.00 39 1018.6
20260903191515 69 181 2.0 5.0 0.00 0.00 0.00 38 1018.6
20260903190514 68 35 0.0 1.0 0.00 0.00 0.00 39 1018.6
20260903185614 68 86 3.0 5.0 0.00 0.00 0.00 40 1018.9
20260903184614 67 88 2.0 4.0 0.00 0.00 0.00 40 1019.1
20260903182615 67 46 3.0 6.0 0.00 0.00 0.00 41 1019.3
20260903181633 65 56 3.0 6.0 0.00 0.00 0.00 42 1019.3
20260903180616 66 56 3.0 4.0 0.00 0.00 0.00 40 1019.3
20260903175715 66 360 0.0 1.0 0.00 0.00 0.00 39 1019.2
20260903174717 65 116 2.0 6.0 0.00 0.00 0.00 39 1019.4
20260903173815 66 40 0.0 2.0 0.00 0.00 0.00 39 1019.2
20260903173715 66 18 2.0 5.0 0.00 0.00 0.00 39 1019.3
20260903172714 66 121 1.0 5.0 0.00 0.00 0.00 40 1019.3
20260903171716 66 135 0.0 2.0 0.00 0.00 0.00 40 1019.3
20260903170716 65 360 0.0 0.0 0.00 0.00 0.00 41 1019.4
20260903165714 65 157 0.0 2.0 0.00 0.00 0.00 41 1019.5
20260903164716 64 90 0.0 1.0 0.00 0.00 0.00 43 1019.6
20260903163715 64 45 0.0 1.0 0.00 0.00 0.00 45 1019.5
20260903162715 63 45 0.0 1.0 0.00 0.00 0.00 47 1019.6
20260903161714 62 247 0.0 0.0 0.00 0.00 0.00 51 1019.7
20260903160715 60 247 0.0 0.0 0.00 0.00 0.00 59 1019.7
20260903155715 57 247 0.0 0.0 0.00 0.00 0.00 63 1019.9
20260903155616 56 247 0.0 0.0 0.00 0.00 0.00 63 1019.9
20260903154715 54 247 0.0 0.0 0.00 0.00 0.00 65 1019.9
20260903154617 54 247 0.0 0.0 0.00 0.00 0.00 65 1020.0
20260903153616 51 247 0.0 0.0 0.00 0.00 0.00 70 1020.1
20260903152617 49 247 0.0 0.0 0.00 0.00 0.00 75 1020.0
20260903152515 49 247 0.0 0.0 0.00 0.00 0.00 76 1020.1
20260903151613 47 247 0.0 0.0 0.00 0.00 0.00 79 1020.0
20260903150517 44 247 0.0 0.0 0.00 0.00 0.00 84 1019.9
20260903145516 40 247 0.0 0.0 0.00 0.00 0.00 91 1019.8
20260903144514 37 247 0.0 0.0 0.00 0.00 0.00 95 1019.6
20260903143515 36 247 0.0 0.0 0.00 0.00 0.00 96 1019.5
20260903142615 36 247 0.0 0.0 0.00 0.00 0.00 96 1019.5
20260903142516 35 247 0.0 0.0 0.00 0.00 0.00 96 1019.5
20260903141515 35 247 0.0 0.0 0.00 0.00 0.00 95 1019.3
20260903140515 35 247 0.0 0.0 0.00 0.00 0.00 96 1019.4
20260903135513 35 247 0.0 0.0 0.00 0.00 0.00 96 1019.2
20260903134515 35 247 0.0 0.0 0.00 0.00 0.00 94 1019.1
20260903134416 35 247 0.0 0.0 0.00 0.00 0.00 95 1019.2
20260903133514 35 247 0.0 0.0 0.00 0.00 0.00 94 1019.0
20260903132516 35 247 0.0 0.0 0.00 0.00 0.00 94 1019.1
20260903131515 35 247 0.0 0.0 0.00 0.00 0.00 95 1019.1
20260903130516 35 247 0.0 0.0 0.00 0.00 0.00 95 1019.1
20260903125514 35 247 0.0 0.0 0.00 0.00 0.00 93 1019.0
20260903124516 35 247 0.0 0.0 0.00 0.00 0.00 93 1019.2
20260903123517 35 247 0.0 0.0 0.00 0.00 0.00 93 1019.1
20260903122516 35 247 0.0 0.0 0.00 0.00 0.00 93 1019.1
20260903121513 36 247 0.0 0.0 0.00 0.00 0.00 93 1019.1
20260903121415 36 247 0.0 0.0 0.00 0.00 0.00 92 1019.2
20260903120414 36 247 0.0 0.0 0.00 0.00 0.00 93 1019.1
20260903115314 36 247 0.0 0.0 0.00 0.00 0.00 93 1019.2
20260903114413 36 247 0.0 0.0 0.00 0.00 0.00 93 1019.1
20260903114314 36 247 0.0 0.0 0.00 0.00 0.00 93 1019.2
20260903113315 36 247 0.0 0.0 0.00 0.00 0.00 93 1019.2
20260903111216 36 247 0.0 0.0 0.00 0.00 0.00 92 1019.3
20260903110313 36 247 0.0 0.0 0.00 0.00 0.00 92 1019.5
20260903104315 36 247 0.0 0.0 0.00 0.00 0.00 93 1019.5